Location: Newark
(45.5000°N, 11.4167°E)
Time: 13:26:42
(UTC+00:00)

A-11 Canister half - Pass Details

Date: 27 August 2019
Orbit: 1514 x 1686 km, 47.2° (Epoch: 15 September)

Event Time Altitude Azimuth Distance (km) Brightness Sun altitude
Rises 22:22:05 0° 293° (WNW) 4,784 12.1 -33.3°
Reaches altitude 10° 22:25:20 10° 287° (WNW) 3,821 11.4 -33.4°
Enters shadow 22:33:02 40° 238° (WSW) 2,242 9.6 -33.8°
Maximum altitude 22:34:15 42° 221° (SW) 2,206 - -33.8°
Drops below altitude 10° 22:43:24 10° 155° (SSE) 3,920 - -34.1°
Sets 22:46:48 0° 149° (SSE) 4,917 - -34.2°
